国际通讯卫星 503星 (INTELSAT 503)

导读 | 星芒AI

INTELSAT 503 是一颗由 Intelsat 运营的通信卫星,于1984年发射,旨在提供跨大西洋的固定卫星服务(FSS)。该卫星搭载C波段转发器,支持电视广播、数据传输和电话通信。它在地球同步轨道上运行,覆盖北美、欧洲和非洲部分地区。尽管已服役多年,INTELSAT 503 在其生命周期内为国际通信提供了重要支持,是早期卫星通信发展的重要代表之一。

基本信息
目录编号:
12994
目录名称:
INTELSAT 503
国际标识:
1981-119A
轨道中心:
EARTH
卫星名称:
国际通讯卫星 503星
卫星全名:
国际通讯卫星 503星 (INTELSAT 503)
卫星状态:
在轨 (已飞行16024 天)
发射日期:
1981-12-15 UTC
国别 :
(ITSO)
星等 :
--
轨道信息
数据来源 国际轨道数据 AOE轨道数据
星历时间 2025-10-28T15:52:26+0800
23小时前
查看轨道信息
2025-10-26T04:00:00+0800
3天前
查看轨道信息
半长轴 42391.067km 42391.294km
偏心率 0.0050023 0.005002
轨道倾角 11.580° 11.584°
近地点辐角 261.303° 260.853°
升交点赤经 328.580° 328.594°
平近点角 279.258° 106.335°
近地点 35800.879km 35801.117km
远地点 36224.985km 36225.201km
周期 1447.676分钟 1447.687分钟
每日圈数 0.994698 0.99469
详细信息
卫星平台:
Intelsat V
平衡模式:
三轴稳定
覆盖范围:
全球
运营商:
国际卫星通信公司
运营商所在国:
美国
制造商(研发单位):
福特工程公司
制造商所在国:
美国
使用方式:
暂无
卫星简介
从1965年4月至1984年3月,国际通信卫星组织发射了5代、6种不同性能的卫星共计35颗,除6颗卫星因运载火箭和远地点发动机故障而发射失败外,其余29颗卫星均被送到了预定的静止轨道位置。1984年8月前后,国际通信卫星组织利用部署在大西洋、太平洋、印度洋上空的15颗国际通信卫星,为遍布世界各地170多个国家或地区提供电话、电传、电报、电视和数据传输等电信业务;该卫星已退役。
2D轨道图
3D轨道图
轨道高度分析图
轨道倾角分析图
轨道综合分析图
查看轨道综合分析图